Weather History for Leonardtown, MD

Change the Weather History Date:

Sunday, January 6, 2013

  Actual Average (KNHK) Record (KNHK)
Temperature  
Mean Temperature 42 °F -  
Max Temperature 50 °F 42 °F 68 °F (2007)
Min Temperature 33 °F 27 °F 10 °F (1999)
Degree Days  
Heating Degree Days 24    
Moisture  
Dew Point 30 °F    
Average Humidity 66    
Maximum Humidity 93    
Minimum Humidity 40    
Precipitation  
Precipitation 0.00 in - - ()
Sea Level Pressure  
Sea Level Pressure 30.13 in    
Wind  
Wind Speed 3 mph (SW)    
Max Wind Speed 8 mph    
Max Gust Speed -    
Visibility 10 miles    
Events      
Averages and records for this station are not official NWS values.
T = Trace of Precipitation, MM = Missing Value Source: NWS Daily Summary

Daily Weather History Graph

Daily Weather History Graph

Search for Another Location

Airport:

Trip Planner

Search our weather history database for the weather conditions in past years. The results will help you decide how hot, cold, wet, or windy it might be!

Date:

Astronomy

Jan. 06, 2013 Rise Set
Actual Time 7:23 AM EST 5:01 PM EST
Civil Twilight 6:54 AM EST 5:30 PM EST
Nautical Twilight 6:21 AM EST 6:03 PM EST
Astronomical Twilight 5:49 AM EST 6:35 PM EST
Moon 1:37 AM EST (1/6) 12:25 PM EST (1/6)
Length of Visible Light 10h 36m
Length of Day
9h 37m
Waning Crescent, 33% of the Moon is Illuminated
Jan 6
Waning Crescent
Jan 11
New
Jan 18
First Quarter
Jan 26
Full
Feb 3
Last Quarter

Hourly Weather History & Observations

Time (EST) Temp. Windchill Dew Point Humidity Pressure Visibility Wind Dir Wind Speed Gust Speed Precip Events Conditions
12:02 AM 37.4 °F 32.8 °F 30.2 °F 75% 30.21 in 10.0 mi SE 5.8 mph - N/A   Overcast
12:23 AM 37.4 °F 33.8 °F 30.2 °F 75% 30.21 in 10.0 mi South 4.6 mph - N/A   Overcast
12:44 AM 39.2 °F 35.0 °F 30.2 °F 70% 30.22 in 10.0 mi South 5.8 mph - N/A   Overcast
1:06 AM 39.2 °F 35.9 °F 32.0 °F 75% 30.22 in 10.0 mi SSW 4.6 mph - N/A   Overcast
1:27 AM 39.2 °F 35.9 °F 32.0 °F 75% 30.22 in 10.0 mi SSW 4.6 mph - N/A   Overcast
1:48 AM 37.4 °F - 32.0 °F 81% 30.22 in 10.0 mi Calm Calm - N/A   Overcast
2:10 AM 37.4 °F 34.9 °F 32.0 °F 81% 30.21 in 10.0 mi SSE 3.5 mph - N/A   Overcast
2:31 AM 39.2 °F 37.0 °F 32.0 °F 75% 30.20 in 10.0 mi SSE 3.5 mph - N/A   Overcast
2:52 AM 39.2 °F 35.9 °F 32.0 °F 75% 30.19 in 10.0 mi South 4.6 mph - N/A   Overcast
3:14 AM 39.2 °F 35.0 °F 32.0 °F 75% 30.18 in 10.0 mi South 5.8 mph - N/A   Overcast
3:35 AM 37.4 °F 32.1 °F 32.0 °F 81% 30.16 in 10.0 mi SSE 6.9 mph - N/A   Overcast
3:56 AM 39.2 °F 35.9 °F 32.0 °F 75% 30.17 in 10.0 mi SSW 4.6 mph - N/A   Overcast
4:17 AM 37.4 °F 34.9 °F 32.0 °F 81% 30.14 in 10.0 mi South 3.5 mph - N/A   Overcast
4:39 AM 39.2 °F 35.0 °F 32.0 °F 75% 30.15 in 10.0 mi SSW 5.8 mph - N/A   Overcast
5:00 AM 39.2 °F 35.9 °F 32.0 °F 75% 30.15 in 10.0 mi SSW 4.6 mph - N/A   Overcast
5:21 AM 39.2 °F - 32.0 °F 75% 30.16 in 10.0 mi Calm Calm - N/A   Overcast
5:43 AM 39.2 °F - 32.0 °F 75% 30.15 in 10.0 mi Calm Calm - N/A   Overcast
6:04 AM 39.2 °F - 32.0 °F 75% 30.15 in 10.0 mi Calm Calm - N/A   Overcast
6:25 AM 37.4 °F 34.9 °F 32.0 °F 81% 30.16 in 10.0 mi SW 3.5 mph - N/A   Overcast
7:08 AM 35.6 °F - 32.0 °F 87% 30.16 in 10.0 mi Calm Calm - N/A   Scattered Clouds
7:29 AM 33.8 °F - 32.0 °F 93% 30.16 in 10.0 mi Calm Calm - N/A   Scattered Clouds
7:50 AM 33.8 °F - 32.0 °F 93% 30.16 in 10.0 mi Calm Calm - N/A   Clear
8:11 AM 33.8 °F - 32.0 °F 93% 30.16 in 10.0 mi Calm Calm - N/A   Clear
8:33 AM 35.6 °F - 32.0 °F 87% 30.16 in 10.0 mi Calm Calm - N/A   Clear
8:54 AM 37.4 °F - 32.0 °F 81% 30.17 in 10.0 mi Calm Calm - N/A   Clear
9:15 AM 41.0 °F 37.1 °F 32.0 °F 70% 30.17 in 10.0 mi WSW 5.8 mph - N/A   Clear
9:37 AM 41.0 °F 39.0 °F 32.0 °F 70% 30.17 in 10.0 mi WSW 3.5 mph - N/A   Clear
10:19 AM 44.6 °F 42.2 °F 32.0 °F 61% 30.16 in 10.0 mi WSW 4.6 mph - N/A   Clear
10:40 AM 44.6 °F - 30.2 °F 57% 30.16 in 10.0 mi Calm Calm - N/A   Clear
11:01 AM 44.6 °F - 30.2 °F 57% 30.14 in 10.0 mi Calm Calm - N/A   Clear
11:02 AM 44.6 °F - 30.2 °F 57% 30.14 in 10.0 mi Calm Calm - N/A   Clear
11:23 AM 46.4 °F 45.2 °F 26.6 °F 46% 30.13 in 10.0 mi NNE 3.5 mph - N/A   Clear
12:05 PM 46.4 °F - 26.6 °F 46% 30.10 in - Calm Calm - N/A   Clear
12:27 PM 46.4 °F - 26.6 °F 46% 30.09 in 10.0 mi Calm Calm - N/A   Clear
12:48 PM 46.4 °F - 26.6 °F 46% 30.08 in 10.0 mi Calm Calm - N/A   Clear
1:30 PM 50.0 °F - 28.4 °F 43% 30.07 in 10.0 mi WSW 5.8 mph - N/A   Clear
1:52 PM 50.0 °F - 28.4 °F 43% 30.06 in 10.0 mi WSW 5.8 mph - N/A   Clear
2:13 PM 50.0 °F - 26.6 °F 40% 30.06 in 10.0 mi WSW 4.6 mph - N/A   Clear
2:34 PM 50.0 °F - 26.6 °F 40% 30.06 in 10.0 mi SW 5.8 mph - N/A   Clear
2:55 PM 50.0 °F - 26.6 °F 40% 30.06 in 10.0 mi WSW 5.8 mph - N/A   Clear
3:17 PM 50.0 °F - 26.6 °F 40% 30.06 in 10.0 mi SW 6.9 mph - N/A   Clear
3:38 PM 48.2 °F - 26.6 °F 43% 30.06 in 10.0 mi SW 8.1 mph - N/A   Clear
3:59 PM 48.2 °F - 26.6 °F 43% 30.06 in 10.0 mi SSW 5.8 mph - N/A   Clear
4:21 PM 46.4 °F 44.3 °F 26.6 °F 46% 30.06 in 10.0 mi SSW 4.6 mph - N/A   Clear
5:03 PM 44.6 °F - 28.4 °F 53% 30.06 in 10.0 mi Calm Calm - N/A   Clear
5:24 PM 41.0 °F - 30.2 °F 65% 30.07 in 10.0 mi Calm Calm - N/A   Clear
5:46 PM 39.2 °F - 30.2 °F 70% 30.07 in 10.0 mi Calm Calm - N/A   Clear
6:07 PM 39.2 °F - 30.2 °F 70% 30.07 in - Calm Calm - N/A   Scattered Clouds
7:32 PM 41.0 °F - 28.4 °F 61% 30.09 in 10.0 mi Calm Calm - N/A   Overcast
7:53 PM 41.0 °F - 28.4 °F 61% 30.09 in 10.0 mi Calm Calm - N/A   Overcast
8:15 PM 41.0 °F - 28.4 °F 61% 30.10 in 10.0 mi Calm Calm - N/A   Overcast
8:36 PM 41.0 °F - 28.4 °F 61% 30.11 in 10.0 mi Calm Calm - N/A   Overcast
8:57 PM 41.0 °F - 28.4 °F 61% 30.10 in 10.0 mi Calm Calm - N/A   Overcast
9:18 PM 41.0 °F - 30.2 °F 65% 30.11 in 10.0 mi Calm Calm - N/A   Overcast
10:01 PM 39.2 °F 37.0 °F 30.2 °F 70% 30.12 in 10.0 mi West 3.5 mph - N/A   Overcast
10:22 PM 41.0 °F 39.0 °F 30.2 °F 65% 30.12 in 10.0 mi West 3.5 mph - N/A   Overcast
10:44 PM 41.0 °F 39.0 °F 28.4 °F 61% 30.14 in 10.0 mi West 3.5 mph - N/A   Overcast
11:05 PM 41.0 °F - 30.2 °F 65% 30.14 in 10.0 mi Calm Calm - N/A   Overcast
11:26 PM 41.0 °F - 30.2 °F 65% 30.14 in 10.0 mi Calm Calm - N/A   Overcast
11:48 PM 39.2 °F - 30.2 °F 70% 30.15 in 10.0 mi Calm Calm - N/A   Overcast